Change the Weather History Date:

Sunday, February 23, 2014

  Actual Average Record
Temperature  
Mean Temperature 23 °F 29 °F  
Max Temperature 28 °F 36 °F 65 °F (1984)
Min Temperature 18 °F 21 °F -9 °F (2015)
Degree Days  
Heating Degree Days 42 36  
Month to date heating degree days 1066 889  
Since 1 July heating degree days 4896 4597  
Cooling Degree Days 0 0  
Month to date cooling degree days 0 0  
Year to date cooling degree days 0 0  
Moisture  
Dew Point 12 °F    
Average Humidity 64    
Maximum Humidity 73    
Minimum Humidity 55    
Precipitation  
Precipitation 0.00 in 0.07 in 0.60 in (1979)
Month to date precipitation 1.39 1.15  
Year to date precipitation 2.51 2.94  
Sea Level Pressure  
Sea Level Pressure 30.12 in    
Wind  
Wind Speed 10 mph (West)    
Max Wind Speed 20 mph    
Max Gust Speed 26 mph    
Visibility 10 miles    
Events      
T = Trace of Precipitation, MM = Missing Value Source: NWS Daily Summary

Daily Weather History Graph

Daily Weather History Graph

Search for Another Location

Airport or City:

Trip Planner

Search our weather history database for the weather conditions in past years. The results will help you decide how hot, cold, wet, or windy it might be!

Date:

Astronomy

Feb. 23, 2014 Rise Set
Actual Time 7:26 AM EST 6:24 PM EST
Civil Twilight 6:58 AM EST 6:53 PM EST
Nautical Twilight 6:25 AM EST 7:25 PM EST
Astronomical Twilight 5:53 AM EST 7:58 PM EST
Moon 2:27 AM EST (2/23) 12:23 PM EST (2/23)
Length of Visible Light 11h 54m
Length of Day
10h 58m
Last Quarter, 39% of the Moon is Illuminated
Feb 23
Last Quarter
Mar 1
New
Mar 8
First Quarter
Mar 16
Full
Mar 23
Last Quarter

Hourly Weather History & Observations

Time (EST) Temp. Windchill Dew Point Humidity Pressure Visibility Wind Dir Wind Speed Gust Speed Precip Events Conditions
12:53 AM 26.1 °F 17.6 °F 14.0 °F 60% 30.04 in 10.0 mi WNW 8.1 mph - N/A   Clear
1:53 AM 25.0 °F 17.1 °F 14.0 °F 63% 30.04 in 10.0 mi WNW 6.9 mph - N/A   Clear
2:53 AM 23.0 °F 17.0 °F 12.9 °F 65% 30.05 in 10.0 mi WNW 4.6 mph - N/A   Clear
3:53 AM 21.9 °F 15.7 °F 12.9 °F 68% 30.05 in 10.0 mi West 4.6 mph - N/A   Clear
4:53 AM 19.9 °F 13.4 °F 12.0 °F 71% 30.06 in 10.0 mi West 4.6 mph - N/A   Clear
5:53 AM 19.9 °F 12.1 °F 12.9 °F 74% 30.09 in 10.0 mi West 5.8 mph - N/A   Clear
6:53 AM 21.0 °F 11.4 °F 12.9 °F 71% 30.10 in 10.0 mi West 8.1 mph - N/A   Clear
7:53 AM 19.9 °F 10.1 °F 12.9 °F 74% 30.12 in 10.0 mi West 8.1 mph - N/A   Clear
8:53 AM 21.0 °F 9.9 °F 14.0 °F 74% 30.15 in 10.0 mi West 10.4 mph - N/A   Clear
9:53 AM 21.9 °F 10.4 °F 12.9 °F 68% 30.14 in 10.0 mi WNW 11.5 mph - N/A   Clear
10:53 AM 23.0 °F 9.6 °F 12.9 °F 65% 30.15 in 10.0 mi West 16.1 mph - N/A   Clear
11:53 AM 24.1 °F 11.5 °F 12.9 °F 62% 30.15 in 10.0 mi West 15.0 mph - N/A   Clear
12:53 PM 25.0 °F 13.6 °F 12.0 °F 58% 30.15 in 10.0 mi WNW 12.7 mph 25.3 mph N/A   Clear
1:53 PM 25.0 °F 11.3 °F 12.0 °F 58% 30.14 in 10.0 mi West 18.4 mph - N/A   Clear
2:53 PM 25.0 °F 13.1 °F 12.0 °F 58% 30.14 in 10.0 mi WNW 13.8 mph 21.9 mph N/A   Clear
3:53 PM 25.0 °F 12.6 °F 10.9 °F 55% 30.14 in 10.0 mi WNW 15.0 mph - N/A   Clear
4:53 PM 25.0 °F 14.2 °F 12.0 °F 58% 30.14 in 10.0 mi West 11.5 mph 20.7 mph N/A   Clear
5:53 PM 23.0 °F 10.6 °F 10.9 °F 60% 30.14 in 10.0 mi West 13.8 mph - N/A   Clear
6:53 PM 21.0 °F 12.4 °F 10.0 °F 63% 30.15 in 10.0 mi WSW 6.9 mph - N/A   Clear
7:53 PM 19.9 °F 12.1 °F 9.0 °F 62% 30.14 in 10.0 mi SW 5.8 mph - N/A   Clear
8:53 PM 19.9 °F 10.1 °F 10.0 °F 65% 30.14 in 10.0 mi WSW 8.1 mph - N/A   Clear
9:53 PM 21.0 °F 8.1 °F 10.0 °F 63% 30.14 in 10.0 mi West 13.8 mph - N/A   Clear
10:53 PM 21.0 °F 9.3 °F 10.0 °F 63% 30.14 in 10.0 mi West 11.5 mph - N/A   Clear
11:53 PM 19.9 °F 10.1 °F 10.0 °F 65% 30.14 in 10.0 mi West 8.1 mph - N/A   Scattered Clouds